Tracking 18844 objects as of 21-Nov-2017
HD Live streaming from Space Station
objects crossing your sky now

FENGYUN 1C DEB

Track FENGYUN 1C DEB now!
10-day predictions


NORAD ID: 29968
Int'l Code: 1999-025KS
Perigee: 815.1 km
Apogee: 947.8 km
Inclination: 98.9 °
Period: 102.4 minutes
Semi major axis: 7252 km
RCS: 0.0839 m2 (small)
Launch date: May 10, 1999
Source: People's Republic of China (PRC)
Launch site: Taiyaun Space Center, China (TSC)

Note: This is SATELLITE DEBRIS
aabbcc
Your satellite tracking list
Your tracking list is empty




NASA's NSSDC Master Catalog

Two Line Element Set (TLE):
1 29968U 99025KS  17324.95799480 +.00000224 +00000-0 +15873-3 0  9992
2 29968 098.8995 354.5894 0091483 342.0227 081.7796 14.05656929556794
Source of the keplerian elements: AFSPC